UMKA 1 (RS40S)

Last updated on Mon Nov 03 2025 00:03:22 GMT+0000 (Coordinated Universal Time)

1 57172U 23091G 25306.46010031 .00007145 00000+0 36050-3 0 9991 2 57172 97.5408 1.1100 0013713 182.9672 177.1482 15.17352022129583
UTC large
Height (km)
Speed (km/s)
/
Latitude / Longitude
Inclination (degrees)
Orbital Period (minutes)
Azimuth
Elevation
Range (km)
Doppler Factor

Next 0 passes for location: London (51.5072 / 0.1276)

Sorry there are no passes over London.